Regional Weather Roundup
Issued by NWS Goodland, KS

Home | Current Version | Previous Version | Text Only | Print | Product List | Glossary On
Versions: 1 2 3 4 5 6 7 8 9 10 11 12 13 14 15 16 17 18 19 20 21 22 23 24 25 26 27 28 29 30 31 32 33 34 35 36 37 38 39 40 41 42 43 44 45 46 47 48 49 50
000
ASUS43 KGLD 060208
RWRGLD

GOODLAND FORECAST AREA HOURLY WEATHER ROUNDUP
NATIONAL WEATHER SERVICE GOODLAND KS
800 PM MDT SUN JUL 05 2015

...OFFICIAL OBSERVATIONS...

CITY           SKY/WX    TMP DP  RH WIND       PRES   REMARKS
GOODLAND KS    TSTM      81  59  47 SW7G20    29.82R
HILL CITY KS   CLOUDY    92  58  31 S17G28    29.77R
IMPERIAL NEB   CLOUDY    77  60  55 N10       29.78R
MCCOOK NEB     CLOUDY    77  65  66 E17       29.76F THUNDER
AKRON CO       MOCLDY    71  59  65 NW22G29   29.96R
BURLINGTON CO  LGT RAIN  85  53  33 S22G29    29.85S
LIMON CO       CLOUDY    71  55  56 N18G32    29.99S
$$

...UNOFFICIAL OBSERVATIONS...

CITY           SKY/WX    TMP DP  RH WIND       PRES   REMARKS
COLBY KS       CLEAR     91  61  35 S18G24    29.80R
GOVE KS          N/A     89  32  13 MISG        N/A
NORTON KS      CLEAR     91  52  25 S7        29.75S
SHARON SPRINGS   N/A     90  58  33 S20         N/A
KIT CARSON CO    N/A     88  58  35 MISG        N/A
YUMA CO          N/A     78  58  50 N15G26      N/A
$$


USA.gov is the U.S. government's official web portal to all federal, state and local government web resources and services.